Aneityum Airport


Codes: NVVA/AUY
Name: Aneityum Airport
City: Anatom Island
Country: Vanuatu
Elevation: 7 ft.
Wikipedia:

Photos at Aneityum Airport


   Photos courtesy of SpottingLog. You can add your own sightings and photos by signing up for a free trial today.



No photos found.

Weather at Aneityum Airport


Time (UTC)DescriptionTempratureWindCloud coverageVisibilityPressureHumidity
16-Jun-2024 00:00Clear Sky25°C13 mph, NE7%10000m1014hPa78%
16-Jun-2024 03:00Light Rain25°C11 mph, NE3%10000m1012hPa79%
16-Jun-2024 06:00Light Rain25°C7 mph, N0%10000m1012hPa82%
16-Jun-2024 09:00Light Rain25°C7 mph, W2%10000m1014hPa83%
16-Jun-2024 12:00Clear Sky24°C7 mph, SW5%10000m1013hPa83%
16-Jun-2024 15:00Clear Sky24°C4 mph, W4%10000m1012hPa82%
16-Jun-2024 18:00Clear Sky24°C7 mph, W3%10000m1012hPa85%
16-Jun-2024 21:00Few Clouds24°C7 mph, W11%10000m1013hPa86%
17-Jun-2024 00:00Clear Sky24°C9 mph, W9%10000m1013hPa82%
17-Jun-2024 03:00Clear Sky24°C11 mph, W10%10000m1011hPa81%
17-Jun-2024 06:00Few Clouds24°C9 mph, W19%10000m1011hPa80%
17-Jun-2024 09:00Few Clouds24°C7 mph, W18%10000m1013hPa78%
17-Jun-2024 12:00Few Clouds23°C7 mph, W12%10000m1013hPa78%
17-Jun-2024 15:00Scattered Clouds24°C11 mph, W25%10000m1013hPa78%
17-Jun-2024 18:00Scattered Clouds23°C9 mph, W29%10000m1012hPa75%
17-Jun-2024 21:00Clear Sky24°C9 mph, W5%10000m1014hPa73%
18-Jun-2024 00:00Clear Sky24°C11 mph, W2%10000m1013hPa72%
18-Jun-2024 03:00Broken Clouds24°C9 mph, W77%10000m1011hPa72%
18-Jun-2024 06:00Broken Clouds24°C9 mph, W80%10000m1011hPa71%
18-Jun-2024 09:00Few Clouds24°C11 mph, W15%10000m1013hPa72%
18-Jun-2024 12:00Scattered Clouds24°C11 mph, W32%10000m1013hPa71%
18-Jun-2024 15:00Clear Sky24°C13 mph, W5%10000m1012hPa73%
18-Jun-2024 18:00Clear Sky23°C13 mph, W4%10000m1012hPa71%
18-Jun-2024 21:00Clear Sky24°C9 mph, SW8%10000m1014hPa69%
19-Jun-2024 00:00Clear Sky24°C9 mph, SW6%10000m1014hPa67%
19-Jun-2024 03:00Clear Sky24°C9 mph, S0%10000m1012hPa69%
19-Jun-2024 06:00Clear Sky23°C11 mph, S10%10000m1013hPa71%
19-Jun-2024 09:00Scattered Clouds23°C13 mph, SE37%10000m1015hPa69%
19-Jun-2024 12:00Broken Clouds23°C11 mph, SE57%10000m1015hPa64%
19-Jun-2024 15:00Overcast Clouds23°C9 mph, S91%10000m1014hPa57%
19-Jun-2024 18:00Broken Clouds23°C11 mph, S57%10000m1014hPa60%
19-Jun-2024 21:00Few Clouds23°C13 mph, SE13%10000m1016hPa63%
20-Jun-2024 00:00Few Clouds23°C16 mph, SE12%10000m1016hPa62%
20-Jun-2024 03:00Clear Sky23°C16 mph, SE5%10000m1014hPa64%
20-Jun-2024 06:00Clear Sky23°C18 mph, SE4%10000m1015hPa65%
20-Jun-2024 09:00Scattered Clouds23°C18 mph, SE33%10000m1017hPa66%
20-Jun-2024 12:00Light Rain24°C16 mph, SE68%10000m1017hPa61%
20-Jun-2024 15:00Broken Clouds23°C16 mph, SE80%10000m1016hPa62%
20-Jun-2024 18:00Light Rain23°C16 mph, SE71%10000m1016hPa68%
20-Jun-2024 21:00Overcast Clouds23°C18 mph, SE92%10000m1018hPa63%